| time (UTC) | temp C | wind direction | speed KPH | gust KPH | rain 1hr cm | rain 24hr cm | rain mn cm | humidity % | barometer mb |
| 20260904222008 | 34 | 247 | 0.0 | 6.4 | 0.00 | 0.10 | 0.03 | 66 | 1015.0 |
| 20260904221527 | 34 | 239 | 0.0 | 6.4 | 0.00 | 0.10 | 0.03 | 65 | 1014.8 |
| 20260904221015 | 34 | 221 | 0.0 | 8.0 | 0.00 | 0.10 | 0.03 | 64 | 1014.5 |
| 20260904220504 | 34 | 235 | 3.2 | 11.3 | 0.00 | 0.10 | 0.03 | 66 | 1014.3 |
| 20260904220011 | 34 | 184 | 1.6 | 11.3 | 0.00 | 0.10 | 0.03 | 66 | 1014.3 |
| 20260904215506 | 34 | 240 | 1.6 | 8.0 | 0.00 | 0.30 | 0.03 | 67 | 1014.3 |
| 20260904215003 | 33 | 194 | 0.0 | 9.7 | 0.00 | 0.86 | 0.03 | 68 | 1014.3 |
| 20260904214516 | 33 | 242 | 1.6 | 14.5 | 0.00 | 1.12 | 0.03 | 67 | 1014.6 |
| 20260904214009 | 33 | 263 | 6.4 | 16.1 | 0.00 | 1.52 | 0.03 | 66 | 1014.8 |
| 20260904213512 | 33 | 227 | 6.4 | 16.1 | 0.00 | 1.85 | 0.03 | 66 | 1014.9 |
| 20260904213019 | 34 | 175 | 3.2 | 16.1 | 0.00 | 2.31 | 0.03 | 67 | 1015.0 |
| 20260904212509 | 34 | 223 | 1.6 | 16.1 | 0.00 | 2.87 | 0.03 | 66 | 1014.9 |
| 20260904212010 | 34 | 223 | 8.0 | 16.1 | 0.00 | 3.66 | 0.03 | 66 | 1014.9 |
| 20260904211529 | 34 | 209 | 6.4 | 14.5 | 0.00 | 4.19 | 0.03 | 66 | 1015.0 |
| 20260904211006 | 34 | 206 | 4.8 | 12.9 | 0.00 | 4.22 | 0.03 | 68 | 1015.0 |
| 20260904210510 | 33 | 242 | 4.8 | 12.9 | 0.00 | 4.22 | 0.03 | 68 | 1015.0 |
| 20260904210033 | 33 | 248 | 3.2 | 14.5 | 0.00 | 4.22 | 0.03 | 70 | 1015.1 |
| 20260904205509 | 33 | 227 | 8.0 | 14.5 | 0.00 | 4.22 | 0.03 | 71 | 1014.9 |
| 20260904205004 | 32 | 238 | 1.6 | 16.1 | 0.00 | 4.22 | 0.03 | 73 | 1014.7 |
| 20260904204515 | 32 | 246 | 6.4 | 16.1 | 0.00 | 4.22 | 0.03 | 73 | 1014.7 |
| 20260904204008 | 32 | 233 | 3.2 | 17.7 | 0.00 | 4.22 | 0.03 | 73 | 1014.8 |
| 20260904203508 | 31 | 236 | 6.4 | 17.7 | 0.00 | 4.22 | 0.03 | 71 | 1014.9 |
| 20260904203019 | 31 | 204 | 3.2 | 11.3 | 0.00 | 4.22 | 0.03 | 72 | 1014.9 |
| 20260904202510 | 30 | 201 | 3.2 | 11.3 | 0.00 | 4.22 | 0.03 | 72 | 1014.8 |
| 20260904202006 | 30 | 212 | 3.2 | 12.9 | 0.00 | 4.22 | 0.03 | 73 | 1014.9 |
| 20260904201524 | 30 | 236 | 1.6 | 14.5 | 0.00 | 4.22 | 0.03 | 72 | 1014.8 |
| 20260904201014 | 30 | 226 | 3.2 | 14.5 | 0.00 | 4.22 | 0.03 | 72 | 1014.7 |
| 20260904200513 | 30 | 223 | 1.6 | 16.1 | 0.00 | 4.22 | 0.03 | 72 | 1014.7 |
| 20260904200038 | 30 | 234 | 6.4 | 16.1 | 0.00 | 4.22 | 0.03 | 70 | 1014.8 |
| 20260904195510 | 31 | 230 | 9.7 | 16.1 | 0.00 | 4.22 | 0.03 | 71 | 1014.9 |
| 20260904195016 | 31 | 228 | 6.4 | 16.1 | 0.00 | 4.22 | 0.03 | 73 | 1015.1 |
| 20260904194514 | 31 | 248 | 8.0 | 17.7 | 0.00 | 4.22 | 0.03 | 73 | 1015.1 |
| 20260904194010 | 32 | 223 | 4.8 | 17.7 | 0.00 | 4.22 | 0.03 | 72 | 1015.1 |
| 20260904193507 | 32 | 236 | 6.4 | 22.5 | 0.00 | 4.22 | 0.03 | 70 | 1015.1 |
| 20260904193020 | 33 | 253 | 12.9 | 27.4 | 0.00 | 4.22 | 0.03 | 68 | 1015.3 |
| 20260904192510 | 34 | 251 | 12.9 | 33.8 | 0.00 | 4.22 | 0.03 | 69 | 1015.2 |
| 20260904192010 | 35 | 214 | 22.5 | 33.8 | 0.00 | 4.22 | 0.03 | 69 | 1015.2 |
| 20260904191523 | 35 | 239 | 3.2 | 16.1 | 0.00 | 4.22 | 0.03 | 70 | 1015.2 |
| 20260904191012 | 35 | 245 | 4.8 | 16.1 | 0.00 | 4.22 | 0.03 | 70 | 1015.4 |
| 20260904190508 | 35 | 244 | 4.8 | 14.5 | 0.00 | 4.22 | 0.03 | 71 | 1015.8 |
| 20260904190029 | 35 | 304 | 3.2 | 11.3 | 0.00 | 4.22 | 0.03 | 71 | 1015.8 |
| 20260904185515 | 34 | 264 | 1.6 | 11.3 | 0.00 | 4.22 | 0.03 | 72 | 1015.9 |
| 20260904185007 | 33 | 203 | 1.6 | 11.3 | 0.00 | 4.22 | 0.03 | 73 | 1015.9 |
| 20260904184542 | 33 | 175 | 0.0 | 12.9 | 0.00 | 4.22 | 0.03 | 74 | 1016.1 |
| 20260904184015 | 32 | 168 | 3.2 | 14.5 | 0.00 | 4.22 | 0.03 | 76 | 1016.2 |
| 20260904183515 | 32 | 200 | 8.0 | 16.1 | 0.00 | 4.22 | 0.03 | 75 | 1016.1 |
| 20260904183024 | 31 | 180 | 8.0 | 16.1 | 0.00 | 4.22 | 0.03 | 77 | 1016.1 |
| 20260904182507 | 31 | 184 | 4.8 | 12.9 | 0.00 | 4.22 | 0.03 | 77 | 1016.2 |
| 20260904182010 | 31 | 194 | 3.2 | 14.5 | 0.00 | 4.22 | 0.03 | 75 | 1016.1 |
| 20260904181525 | 31 | 211 | 1.6 | 14.5 | 0.00 | 4.22 | 0.03 | 74 | 1016.1 |
| 20260904181012 | 32 | 158 | 3.2 | 27.4 | 0.00 | 4.22 | 0.03 | 73 | 1016.2 |
| 20260904180510 | 33 | 196 | 12.9 | 27.4 | 0.00 | 4.22 | 0.03 | 70 | 1016.3 |
| 20260904180028 | 34 | 221 | 11.3 | 20.9 | 0.00 | 4.22 | 0.03 | 68 | 1016.2 |
| 20260904175511 | 35 | 173 | 4.8 | 14.5 | 0.00 | 4.22 | 0.03 | 70 | 1016.2 |
| 20260904175015 | 35 | 205 | 4.8 | 16.1 | 0.00 | 4.22 | 0.03 | 70 | 1016.2 |
| 20260904174603 | 35 | 186 | 4.8 | 16.1 | 0.00 | 4.22 | 0.03 | 72 | 1016.3 |
| 20260904174007 | 34 | 178 | 3.2 | 14.5 | 0.00 | 4.22 | 0.03 | 74 | 1016.4 |
| 20260904173509 | 34 | 196 | 3.2 | 12.9 | 0.00 | 4.22 | 0.03 | 71 | 1016.4 |
| 20260904173032 | 34 | 107 | 1.6 | 12.9 | 0.00 | 4.22 | 0.03 | 75 | 1016.4 |
| 20260904172517 | 33 | 150 | 1.6 | 11.3 | 0.00 | 4.22 | 0.03 | 75 | 1016.6 |
| 20260904172010 | 33 | 192 | 0.0 | 14.5 | 0.00 | 4.22 | 0.03 | 73 | 1016.6 |
| 20260904171530 | 33 | 190 | 6.4 | 16.1 | 0.00 | 4.22 | 0.03 | 72 | 1016.5 |
| 20260904171011 | 33 | 162 | 3.2 | 16.1 | 0.00 | 4.22 | 0.03 | 75 | 1016.7 |
| 20260904170508 | 33 | 222 | 8.0 | 20.9 | 0.00 | 4.22 | 0.03 | 75 | 1016.8 |
| 20260904170040 | 33 | 177 | 8.0 | 20.9 | 0.00 | 4.22 | 0.03 | 75 | 1016.7 |
| 20260904165511 | 33 | 165 | 9.7 | 17.7 | 0.00 | 4.22 | 0.03 | 75 | 1016.7 |
| 20260904165013 | 33 | 216 | 3.2 | 14.5 | 0.00 | 4.22 | 0.03 | 76 | 1016.8 |
| 20260904164524 | 33 | 200 | 4.8 | 14.5 | 0.00 | 4.22 | 0.03 | 77 | 1016.9 |
| 20260904164012 | 33 | 193 | 4.8 | 12.9 | 0.00 | 4.22 | 0.03 | 76 | 1017.0 |
| 20260904163516 | 33 | 194 | 4.8 | 11.3 | 0.00 | 4.22 | 0.03 | 78 | 1017.1 |
| 20260904163042 | 32 | 202 | 4.8 | 11.3 | 0.00 | 4.22 | 0.03 | 79 | 1017.2 |
| 20260904162513 | 32 | 143 | 0.0 | 9.7 | 0.00 | 4.22 | 0.03 | 79 | 1017.1 |
| 20260904162016 | 32 | 182 | 1.6 | 12.9 | 0.00 | 4.22 | 0.03 | 80 | 1017.2 |
| 20260904161532 | 32 | 198 | 4.8 | 16.1 | 0.00 | 4.22 | 0.03 | 77 | 1017.3 |
| 20260904161009 | 32 | 229 | 6.4 | 16.1 | 0.00 | 4.22 | 0.03 | 81 | 1017.4 |
| 20260904160513 | 32 | 183 | 4.8 | 12.9 | 0.00 | 4.22 | 0.03 | 78 | 1017.5 |
| 20260904160008 | 32 | 192 | 1.6 | 14.5 | 0.00 | 4.22 | 0.03 | 81 | 1017.4 |
| 20260904155507 | 32 | 213 | 4.8 | 14.5 | 0.00 | 4.22 | 0.03 | 82 | 1017.4 |
| 20260904155009 | 31 | 224 | 6.4 | 12.9 | 0.00 | 4.22 | 0.03 | 83 | 1017.4 |
| 20260904154503 | 31 | 203 | 3.2 | 20.9 | 0.00 | 4.22 | 0.03 | 84 | 1017.5 |
| 20260904154003 | 31 | 199 | 9.7 | 20.9 | 0.00 | 4.22 | 0.03 | 83 | 1017.5 |
| 20260904153504 | 31 | 190 | 1.6 | 11.3 | 0.00 | 4.22 | 0.03 | 86 | 1017.6 |
| 20260904153009 | 30 | 204 | 3.2 | 11.3 | 0.00 | 4.22 | 0.03 | 83 | 1017.4 |
| 20260904152502 | 30 | 191 | 1.6 | 11.3 | 0.00 | 4.22 | 0.03 | 85 | 1017.5 |
| 20260904152004 | 30 | 191 | 3.2 | 12.9 | 0.00 | 4.22 | 0.03 | 85 | 1017.4 |
| 20260904151513 | 30 | 165 | 3.2 | 12.9 | 0.00 | 4.22 | 0.03 | 86 | 1017.4 |
| 20260904151004 | 30 | 190 | 0.0 | 6.4 | 0.00 | 4.22 | 0.03 | 87 | 1017.3 |
| 20260904150503 | 29 | 187 | 0.0 | 12.9 | 0.00 | 4.22 | 0.03 | 87 | 1017.4 |
| 20260904150018 | 29 | 189 | 0.0 | 12.9 | 0.00 | 4.22 | 0.03 | 87 | 1017.3 |
| 20260904145504 | 29 | 219 | 1.6 | 11.3 | 0.00 | 4.22 | 0.03 | 89 | 1017.3 |
| 20260904145004 | 29 | 218 | 0.0 | 6.4 | 0.00 | 4.22 | 0.03 | 89 | 1017.3 |
| 20260904144517 | 29 | 193 | 0.0 | 6.4 | 0.00 | 4.22 | 0.03 | 91 | 1017.1 |
| 20260904144010 | 28 | 188 | 0.0 | 1.6 | 0.00 | 4.22 | 0.03 | 90 | 1017.2 |
| 20260904143504 | 28 | 185 | 0.0 | 1.6 | 0.00 | 4.22 | 0.03 | 92 | 1017.1 |
| 20260904143008 | 28 | 187 | 0.0 | 4.8 | 0.00 | 4.22 | 0.03 | 93 | 1017.2 |
| 20260904142504 | 28 | 192 | 0.0 | 4.8 | 0.00 | 4.22 | 0.03 | 93 | 1017.2 |
| 20260904142005 | 27 | 223 | 0.0 | 9.7 | 0.00 | 4.22 | 0.03 | 93 | 1017.2 |
| 20260904141508 | 27 | 206 | 0.0 | 9.7 | 0.00 | 4.22 | 0.03 | 94 | 1016.9 |
| 20260904141003 | 27 | 221 | 0.0 | 1.6 | 0.00 | 4.22 | 0.03 | 96 | 1017.0 |
| 20260904140505 | 27 | 200 | 0.0 | 1.6 | 0.00 | 4.22 | 0.03 | 95 | 1016.9 |
| 20260904140009 | 27 | 171 | 0.0 | 1.6 | 0.00 | 4.22 | 0.03 | 96 | 1016.8 |
| 20260904135504 | 27 | 171 | 0.0 | 1.6 | 0.00 | 4.22 | 0.03 | 96 | 1016.7 |
| 20260904135011 | 27 | 171 | 0.0 | 1.6 | 0.00 | 4.22 | 0.03 | 96 | 1016.8 |
| 20260904134520 | 27 | 163 | 0.0 | 1.6 | 0.00 | 4.22 | 0.03 | 96 | 1016.8 |
| 20260904134005 | 26 | 163 | 0.0 | 1.6 | 0.00 | 4.22 | 0.03 | 96 | 1016.9 |
| 20260904133509 | 26 | 175 | 0.0 | 3.2 | 0.00 | 4.22 | 0.03 | 96 | 1016.8 |
| 20260904133028 | 26 | 191 | 0.0 | 3.2 | 0.00 | 4.22 | 0.03 | 96 | 1016.9 |
| 20260904132505 | 26 | 192 | 0.0 | 1.6 | 0.00 | 4.22 | 0.03 | 96 | 1016.8 |
| 20260904132003 | 26 | 165 | 0.0 | 1.6 | 0.00 | 4.22 | 0.03 | 96 | 1017.0 |
| 20260904131507 | 26 | 167 | 0.0 | 1.6 | 0.00 | 4.22 | 0.03 | 96 | 1016.7 |
| 20260904131003 | 26 | 200 | 0.0 | 1.6 | 0.00 | 4.22 | 0.03 | 97 | 1016.8 |
| 20260904130504 | 26 | 194 | 0.0 | 1.6 | 0.00 | 4.22 | 0.03 | 97 | 1016.9 |
| 20260904130016 | 25 | 193 | 0.0 | 1.6 | 0.00 | 4.22 | 0.03 | 97 | 1016.8 |
| 20260904125506 | 25 | 194 | 0.0 | 0.0 | 0.00 | 4.22 | 0.03 | 1016.7 | |
| 20260904125009 | 25 | 194 | 0.0 | 0.0 | 0.00 | 4.22 | 0.03 | 1016.5 | |
| 20260904124523 | 25 | 194 | 0.0 | 0.0 | 0.00 | 4.22 | 0.03 | 1016.5 | |
| 20260904124009 | 25 | 194 | 0.0 | 0.0 | 0.00 | 4.22 | 0.03 | 1016.5 | |
| 20260904123514 | 25 | 194 | 0.0 | 1.6 | 0.00 | 4.22 | 0.03 | 1016.5 | |
| 20260904123010 | 25 | 194 | 0.0 | 1.6 | 0.00 | 4.22 | 0.03 | 1016.5 | |
| 20260904122509 | 25 | 188 | 0.0 | 0.0 | 0.00 | 4.22 | 0.03 | 96 | 1016.4 |
| 20260904122012 | 24 | 171 | 0.0 | 0.0 | 0.00 | 4.22 | 0.03 | 96 | 1016.4 |
| 20260904121508 | 24 | 171 | 0.0 | 0.0 | 0.00 | 4.22 | 0.03 | 96 | 1016.4 |
| 20260904121010 | 24 | 184 | 0.0 | 0.0 | 0.00 | 4.22 | 0.03 | 96 | 1016.2 |
| 20260904120503 | 24 | 169 | 0.0 | 0.0 | 0.00 | 4.22 | 0.03 | 96 | 1016.2 |
| 20260904120012 | 24 | 169 | 0.0 | 0.0 | 0.00 | 4.22 | 0.03 | 96 | 1016.2 |
| 20260904115503 | 23 | 169 | 0.0 | 0.0 | 0.00 | 4.22 | 0.03 | 96 | 1016.2 |
| 20260904115007 | 23 | 169 | 0.0 | 0.0 | 0.00 | 4.22 | 0.03 | 96 | 1016.0 |
| 20260904114516 | 23 | 169 | 0.0 | 0.0 | 0.00 | 4.22 | 0.03 | 96 | 1016.1 |
| 20260904114008 | 23 | 169 | 0.0 | 0.0 | 0.00 | 4.22 | 0.03 | 96 | 1016.1 |
| 20260904113507 | 23 | 168 | 0.0 | 0.0 | 0.00 | 4.22 | 0.03 | 96 | 1016.0 |
| 20260904113030 | 23 | 168 | 0.0 | 0.0 | 0.00 | 4.22 | 0.03 | 96 | 1015.9 |
| 20260904112512 | 23 | 168 | 0.0 | 0.0 | 0.00 | 4.22 | 0.03 | 96 | 1015.8 |
| 20260904112003 | 23 | 168 | 0.0 | 0.0 | 0.00 | 4.22 | 0.03 | 96 | 1015.8 |
| 20260904111518 | 23 | 168 | 0.0 | 0.0 | 0.00 | 4.22 | 0.03 | 96 | 1015.8 |
| 20260904111011 | 23 | 169 | 0.0 | 0.0 | 0.00 | 4.22 | 0.03 | 95 | 1015.8 |
| 20260904110516 | 23 | 168 | 0.0 | 0.0 | 0.00 | 4.22 | 0.03 | 95 | 1015.8 |
| 20260904110019 | 23 | 168 | 0.0 | 0.0 | 0.00 | 4.22 | 0.03 | 95 | 1015.8 |
| 20260904105504 | 23 | 169 | 0.0 | 0.0 | 0.00 | 4.22 | 0.03 | 95 | 1015.6 |
| 20260904105004 | 23 | 169 | 0.0 | 0.0 | 0.00 | 4.22 | 0.03 | 95 | 1015.6 |
| 20260904104514 | 23 | 168 | 0.0 | 0.0 | 0.00 | 4.22 | 0.03 | 95 | 1015.6 |
| 20260904104009 | 23 | 168 | 0.0 | 0.0 | 0.00 | 4.22 | 0.03 | 95 | 1015.7 |
| 20260904103508 | 23 | 169 | 0.0 | 0.0 | 0.00 | 4.22 | 0.03 | 95 | 1015.7 |
| 20260904103026 | 23 | 168 | 0.0 | 0.0 | 0.00 | 4.22 | 0.03 | 95 | 1015.7 |
| 20260904102507 | 23 | 169 | 0.0 | 0.0 | 0.00 | 4.22 | 0.03 | 95 | 1015.5 |
| 20260904102010 | 23 | 168 | 0.0 | 0.0 | 0.00 | 4.22 | 0.03 | 95 | 1015.4 |
| 20260904101527 | 23 | 168 | 0.0 | 0.0 | 0.00 | 4.22 | 0.03 | 95 | 1015.3 |
| 20260904101004 | 23 | 168 | 0.0 | 0.0 | 0.00 | 4.22 | 0.03 | 95 | 1015.2 |
| 20260904100512 | 23 | 168 | 0.0 | 0.0 | 0.00 | 4.22 | 0.03 | 95 | 1015.2 |
| 20260904100030 | 23 | 168 | 0.0 | 0.0 | 0.00 | 4.22 | 0.03 | 95 | 1015.2 |
| 20260904095517 | 23 | 168 | 0.0 | 0.0 | 0.00 | 4.22 | 0.03 | 95 | 1015.1 |
| 20260904095007 | 23 | 168 | 0.0 | 0.0 | 0.00 | 4.22 | 0.03 | 95 | 1015.1 |
| 20260904094526 | 23 | 168 | 0.0 | 0.0 | 0.00 | 4.22 | 0.03 | 95 | 1015.0 |
| 20260904094003 | 23 | 168 | 0.0 | 0.0 | 0.00 | 4.22 | 0.03 | 95 | 1014.9 |
| 20260904093507 | 23 | 168 | 0.0 | 0.0 | 0.00 | 4.22 | 0.03 | 95 | 1014.9 |
| 20260904093048 | 23 | 169 | 0.0 | 0.0 | 0.00 | 4.22 | 0.03 | 95 | 1014.9 |
| 20260904092506 | 23 | 168 | 0.0 | 0.0 | 0.00 | 4.22 | 0.03 | 95 | 1015.0 |
| 20260904092011 | 23 | 169 | 0.0 | 0.0 | 0.00 | 4.22 | 0.03 | 95 | 1015.0 |
| 20260904091515 | 23 | 168 | 0.0 | 0.0 | 0.00 | 4.22 | 0.03 | 95 | 1015.0 |
| 20260904091012 | 23 | 168 | 0.0 | 0.0 | 0.00 | 4.22 | 0.03 | 95 | 1015.0 |
| 20260904090514 | 23 | 168 | 0.0 | 0.0 | 0.00 | 4.22 | 0.03 | 95 | 1015.0 |
| 20260904090029 | 23 | 168 | 0.0 | 0.0 | 0.00 | 4.22 | 0.03 | 95 | 1015.0 |
| 20260904085509 | 23 | 168 | 0.0 | 0.0 | 0.00 | 4.22 | 0.03 | 95 | 1015.0 |
| 20260904085014 | 23 | 168 | 0.0 | 0.0 | 0.00 | 4.22 | 0.03 | 95 | 1015.0 |
| 20260904084535 | 23 | 168 | 0.0 | 0.0 | 0.00 | 4.22 | 0.03 | 95 | 1015.0 |
| 20260904084007 | 23 | 169 | 0.0 | 0.0 | 0.00 | 4.22 | 0.03 | 95 | 1014.9 |
| 20260904083511 | 23 | 168 | 0.0 | 0.0 | 0.00 | 4.22 | 0.03 | 95 | 1014.8 |
| 20260904083012 | 23 | 169 | 0.0 | 0.0 | 0.00 | 4.22 | 0.03 | 95 | 1014.7 |
| 20260904082508 | 23 | 168 | 0.0 | 0.0 | 0.00 | 4.22 | 0.03 | 95 | 1014.9 |
| 20260904082008 | 23 | 168 | 0.0 | 0.0 | 0.00 | 4.22 | 0.03 | 95 | 1014.9 |
| 20260904081524 | 23 | 169 | 0.0 | 0.0 | 0.00 | 4.22 | 0.03 | 95 | 1014.9 |
| 20260904081012 | 23 | 168 | 0.0 | 0.0 | 0.00 | 4.22 | 0.03 | 95 | 1014.9 |
| 20260904080505 | 23 | 169 | 0.0 | 0.0 | 0.00 | 4.22 | 0.03 | 95 | 1014.9 |
| 20260904080027 | 23 | 168 | 0.0 | 0.0 | 0.00 | 4.22 | 0.03 | 95 | 1014.9 |
| 20260904075514 | 23 | 168 | 0.0 | 0.0 | 0.00 | 4.22 | 0.03 | 95 | 1015.0 |
| 20260904075015 | 23 | 168 | 0.0 | 0.0 | 0.00 | 4.22 | 0.03 | 95 | 1015.0 |
| 20260904074520 | 23 | 168 | 0.0 | 0.0 | 0.00 | 4.22 | 0.03 | 95 | 1015.0 |
| 20260904074011 | 23 | 169 | 0.0 | 0.0 | 0.00 | 4.22 | 0.03 | 95 | 1014.8 |
| 20260904073514 | 23 | 168 | 0.0 | 0.0 | 0.00 | 4.22 | 0.03 | 95 | 1014.7 |
| 20260904073049 | 23 | 168 | 0.0 | 0.0 | 0.00 | 4.22 | 0.03 | 95 | 1014.9 |
| 20260904072510 | 23 | 168 | 0.0 | 0.0 | 0.00 | 4.22 | 0.03 | 95 | 1014.9 |
| 20260904072014 | 23 | 169 | 0.0 | 0.0 | 0.00 | 4.22 | 0.03 | 95 | 1014.8 |
| 20260904071521 | 23 | 169 | 0.0 | 0.0 | 0.00 | 4.22 | 0.03 | 95 | 1014.8 |
| 20260904071008 | 23 | 168 | 0.0 | 0.0 | 0.00 | 4.22 | 0.03 | 95 | 1014.7 |
| 20260904070508 | 23 | 168 | 0.0 | 0.0 | 0.00 | 4.22 | 0.03 | 95 | 1014.7 |
| 20260904070028 | 23 | 168 | 0.0 | 0.0 | 0.00 | 4.22 | 0.03 | 95 | 1014.8 |
| 20260904065512 | 23 | 168 | 0.0 | 0.0 | 0.00 | 4.22 | 0.03 | 95 | 1014.9 |
| 20260904065009 | 23 | 169 | 0.0 | 0.0 | 0.00 | 4.22 | 0.03 | 95 | 1014.8 |
| 20260904064529 | 23 | 169 | 0.0 | 0.0 | 0.00 | 4.22 | 0.03 | 95 | 1014.8 |
| 20260904064015 | 23 | 169 | 0.0 | 0.0 | 0.00 | 4.22 | 0.03 | 95 | 1014.8 |
| 20260904063506 | 23 | 169 | 0.0 | 0.0 | 0.00 | 4.22 | 0.03 | 95 | 1014.9 |
| 20260904063030 | 23 | 168 | 0.0 | 0.0 | 0.00 | 4.22 | 0.03 | 95 | 1014.9 |
| 20260904062504 | 23 | 169 | 0.0 | 0.0 | 0.00 | 4.22 | 0.03 | 95 | 1015.0 |
| 20260904062007 | 23 | 168 | 0.0 | 0.0 | 0.00 | 4.22 | 0.03 | 95 | 1015.0 |
| 20260904061515 | 23 | 168 | 0.0 | 0.0 | 0.00 | 4.22 | 0.03 | 95 | 1015.0 |
| 20260904061004 | 23 | 169 | 0.0 | 0.0 | 0.00 | 4.22 | 0.03 | 95 | 1015.1 |
| 20260904060504 | 23 | 168 | 0.0 | 0.0 | 0.03 | 4.22 | 0.03 | 95 | 1015.1 |
| 20260904060013 | 23 | 168 | 0.0 | 0.0 | 0.03 | 4.22 | 0.03 | 95 | 1015.2 |
| 20260904055506 | 23 | 169 | 0.0 | 0.0 | 0.03 | 4.22 | 0.03 | 95 | 1015.2 |
| 20260904055004 | 23 | 168 | 0.0 | 0.0 | 0.03 | 4.22 | 0.03 | 94 | 1015.2 |
| 20260904054508 | 23 | 168 | 0.0 | 0.0 | 0.03 | 4.22 | 0.03 | 94 | 1015.4 |
| 20260904054003 | 23 | 169 | 0.0 | 0.0 | 0.03 | 4.22 | 0.03 | 94 | 1015.5 |
| 20260904053503 | 23 | 168 | 0.0 | 0.0 | 0.03 | 4.22 | 0.03 | 94 | 1015.4 |
| 20260904053009 | 23 | 168 | 0.0 | 0.0 | 0.03 | 4.22 | 0.03 | 94 | 1015.5 |
| 20260904052504 | 23 | 168 | 0.0 | 0.0 | 0.03 | 4.22 | 0.03 | 94 | 1015.6 |
| 20260904052002 | 23 | 168 | 0.0 | 0.0 | 0.03 | 4.22 | 0.03 | 94 | 1015.6 |
| 20260904051510 | 23 | 168 | 0.0 | 0.0 | 0.03 | 4.22 | 0.03 | 94 | 1015.7 |
| 20260904051005 | 23 | 168 | 0.0 | 0.0 | 0.03 | 4.22 | 0.03 | 94 | 1015.7 |
| 20260904050507 | 23 | 169 | 0.0 | 0.0 | 0.00 | 4.19 | 0.00 | 94 | 1015.7 |
| 20260904050008 | 23 | 169 | 0.0 | 0.0 | 0.00 | 4.19 | 0.00 | 94 | 1015.8 |
| 20260904045506 | 23 | 168 | 0.0 | 0.0 | 0.00 | 4.19 | 0.00 | 94 | 1015.7 |
| 20260904045005 | 23 | 168 | 0.0 | 0.0 | 0.00 | 4.19 | 0.00 | 94 | 1015.7 |
| 20260904044507 | 23 | 168 | 0.0 | 0.0 | 0.00 | 4.19 | 0.00 | 94 | 1015.7 |
| 20260904044005 | 23 | 168 | 0.0 | 0.0 | 0.00 | 4.19 | 0.00 | 94 | 1015.8 |
| 20260904043503 | 23 | 168 | 0.0 | 0.0 | 0.00 | 4.19 | 0.00 | 94 | 1015.9 |
| 20260904043006 | 23 | 168 | 0.0 | 0.0 | 0.00 | 4.19 | 0.00 | 94 | 1015.8 |
| 20260904042503 | 23 | 168 | 0.0 | 0.0 | 0.00 | 4.19 | 0.00 | 94 | 1015.9 |
| 20260904042004 | 23 | 168 | 0.0 | 0.0 | 0.00 | 4.19 | 0.00 | 94 | 1015.9 |
| 20260904041509 | 23 | 168 | 0.0 | 0.0 | 0.00 | 4.19 | 0.00 | 94 | 1015.9 |
| 20260904041003 | 23 | 168 | 0.0 | 0.0 | 0.00 | 4.19 | 0.00 | 94 | 1015.8 |
| 20260904040502 | 23 | 168 | 0.0 | 0.0 | 0.00 | 4.19 | 0.00 | 94 | 1015.8 |
| 20260904040018 | 23 | 168 | 0.0 | 0.0 | 0.00 | 4.19 | 0.00 | 94 | 1015.8 |
| 20260904035506 | 23 | 169 | 0.0 | 0.0 | 0.00 | 4.19 | 4.19 | 94 | 1015.8 |
| 20260904035004 | 23 | 168 | 0.0 | 0.0 | 0.00 | 4.19 | 4.19 | 94 | 1015.8 |
| 20260904034516 | 23 | 168 | 0.0 | 0.0 | 0.00 | 4.19 | 4.19 | 94 | 1015.8 |
| 20260904034007 | 23 | 168 | 0.0 | 0.0 | 0.00 | 4.19 | 4.19 | 94 | 1016.0 |
| 20260904033507 | 23 | 168 | 0.0 | 0.0 | 0.00 | 4.19 | 4.19 | 94 | 1016.0 |
| 20260904033015 | 23 | 169 | 0.0 | 0.0 | 0.00 | 4.19 | 4.19 | 94 | 1015.9 |
| 20260904032508 | 23 | 169 | 0.0 | 0.0 | 0.00 | 4.19 | 4.19 | 94 | 1015.8 |
| 20260904032002 | 23 | 168 | 0.0 | 0.0 | 0.00 | 4.19 | 4.19 | 94 | 1015.8 |
| 20260904031507 | 23 | 168 | 0.0 | 0.0 | 0.00 | 4.19 | 4.19 | 94 | 1015.8 |
| 20260904031003 | 23 | 168 | 0.0 | 0.0 | 0.00 | 4.19 | 4.19 | 94 | 1015.7 |
| 20260904030504 | 23 | 169 | 0.0 | 0.0 | 0.00 | 4.19 | 4.19 | 94 | 1015.8 |
| 20260904030016 | 23 | 169 | 0.0 | 0.0 | 0.00 | 4.19 | 4.19 | 94 | 1015.8 |
| 20260904025504 | 23 | 168 | 0.0 | 0.0 | 0.00 | 4.19 | 4.19 | 94 | 1015.8 |
| 20260904025007 | 23 | 169 | 0.0 | 0.0 | 0.00 | 4.19 | 4.19 | 94 | 1015.8 |
| 20260904024520 | 23 | 135 | 0.0 | 0.0 | 0.00 | 4.19 | 4.19 | 94 | 1015.8 |
| 20260904024004 | 24 | 135 | 0.0 | 0.0 | 0.00 | 4.19 | 4.19 | 94 | 1015.7 |
| 20260904023504 | 23 | 135 | 0.0 | 0.0 | 0.00 | 4.19 | 4.19 | 94 | 1015.6 |
| 20260904023021 | 24 | 135 | 0.0 | 0.0 | 0.00 | 4.19 | 4.19 | 94 | 1015.6 |
| 20260904022510 | 24 | 152 | 0.0 | 0.0 | 0.00 | 4.19 | 4.19 | 94 | 1015.6 |
| 20260904022007 | 24 | 153 | 0.0 | 0.0 | 0.00 | 4.19 | 4.19 | 93 | 1015.6 |
| 20260904021518 | 24 | 152 | 0.0 | 0.0 | 0.00 | 4.19 | 4.19 | 93 | 1015.5 |
| 20260904021003 | 24 | 153 | 0.0 | 0.0 | 0.00 | 4.19 | 4.19 | 93 | 1015.4 |
| 20260904020504 | 24 | 131 | 0.0 | 0.0 | 0.00 | 4.19 | 4.19 | 93 | 1015.3 |
| 20260904020013 | 24 | 124 | 0.0 | 0.0 | 0.00 | 4.19 | 4.19 | 93 | 1015.5 |
| 20260904015503 | 24 | 124 | 0.0 | 0.0 | 0.00 | 4.19 | 4.19 | 93 | 1015.4 |
| 20260904015006 | 24 | 133 | 0.0 | 0.0 | 0.00 | 4.19 | 4.19 | 93 | 1015.5 |
| 20260904014512 | 24 | 109 | 0.0 | 0.0 | 0.00 | 4.19 | 4.19 | 93 | 1015.5 |
| 20260904014006 | 24 | 110 | 0.0 | 0.0 | 0.00 | 4.19 | 4.19 | 93 | 1015.5 |
| 20260904013509 | 24 | 102 | 0.0 | 0.0 | 0.00 | 4.19 | 4.19 | 93 | 1015.5 |
| 20260904013032 | 24 | 100 | 0.0 | 0.0 | 0.00 | 4.19 | 4.19 | 93 | 1015.5 |
| 20260904012507 | 24 | 138 | 0.0 | 0.0 | 0.00 | 4.19 | 4.19 | 93 | 1015.6 |
| 20260904012010 | 24 | 138 | 0.0 | 0.0 | 0.00 | 4.19 | 4.19 | 93 | 1015.6 |
| 20260904011527 | 24 | 138 | 0.0 | 0.0 | 0.00 | 4.19 | 4.19 | 93 | 1015.6 |
| 20260904011008 | 24 | 138 | 0.0 | 1.6 | 0.00 | 4.19 | 4.19 | 93 | 1015.6 |
| 20260904010506 | 25 | 113 | 0.0 | 1.6 | 0.00 | 4.19 | 4.19 | 93 | 1015.6 |
| 20260904010029 | 25 | 124 | 0.0 | 1.6 | 0.00 | 4.19 | 4.19 | 93 | 1015.6 |
| 20260904005506 | 25 | 108 | 0.0 | 1.6 | 0.00 | 4.19 | 4.19 | 93 | 1015.5 |
| 20260904005005 | 25 | 76 | 0.0 | 0.0 | 0.00 | 4.19 | 4.19 | 93 | 1015.4 |
| 20260904004516 | 25 | 138 | 0.0 | 0.0 | 0.00 | 4.19 | 4.19 | 93 | 1015.3 |
| 20260904004006 | 25 | 68 | 0.0 | 0.0 | 0.00 | 4.19 | 4.19 | 93 | 1015.2 |
| 20260904003506 | 25 | 68 | 0.0 | 0.0 | 0.00 | 4.19 | 4.19 | 93 | 1015.0 |
| 20260904003019 | 25 | 66 | 0.0 | 0.0 | 0.00 | 4.19 | 4.19 | 93 | 1014.8 |
| 20260904002508 | 25 | 72 | 0.0 | 0.0 | 0.03 | 4.19 | 4.19 | 93 | 1015.0 |
| 20260904002010 | 25 | 72 | 0.0 | 0.0 | 0.03 | 4.19 | 4.19 | 93 | 1015.0 |
| 20260904001517 | 25 | 125 | 0.0 | 0.0 | 0.03 | 4.19 | 4.19 | 93 | 1015.1 |
| 20260904001008 | 25 | 159 | 0.0 | 0.0 | 0.03 | 4.19 | 4.19 | 93 | 1015.1 |
| 20260904000513 | 25 | 159 | 0.0 | 0.0 | 0.03 | 4.19 | 4.19 | 93 | 1015.3 |
| 20260904000029 | 25 | 159 | 0.0 | 0.0 | 0.03 | 4.19 | 4.19 | 93 | 1015.1 |
| 20260903235504 | 25 | 159 | 0.0 | 0.0 | 0.03 | 4.19 | 4.19 | 92 | 1015.0 |
| 20260903235012 | 25 | 131 | 0.0 | 0.0 | 0.05 | 4.19 | 4.19 | 92 | 1015.0 |
| 20260903234529 | 25 | 131 | 0.0 | 1.6 | 0.05 | 4.19 | 4.19 | 92 | 1015.0 |
| 20260903234004 | 25 | 98 | 0.0 | 4.8 | 0.08 | 4.19 | 4.19 | 93 | 1015.0 |
| 20260903233509 | 25 | 106 | 0.0 | 4.8 | 0.08 | 4.19 | 4.19 | 92 | 1015.0 |
| 20260903233020 | 25 | 94 | 0.0 | 3.2 | 0.08 | 4.19 | 4.19 | 92 | 1015.0 |
| 20260903232509 | 25 | 93 | 0.0 | 1.6 | 0.05 | 4.17 | 4.17 | 1015.1 | |
| 20260903232006 | 25 | 33 | 0.0 | 0.0 | 0.05 | 4.19 | 4.17 | 1014.9 | |
| 20260903231528 | 25 | 67 | 0.0 | 0.0 | 0.05 | 4.19 | 4.17 | 1015.0 | |
| 20260903231016 | 25 | 45 | 0.0 | 0.0 | 0.05 | 4.19 | 4.17 | 1014.9 | |
| 20260903230506 | 25 | 44 | 0.0 | 0.0 | 0.05 | 4.19 | 4.17 | 1014.9 | |
| 20260903230045 | 25 | 44 | 0.0 | 0.0 | 0.05 | 4.19 | 4.17 | 1015.1 | |
| 20260903225515 | 25 | 44 | 0.0 | 0.0 | 0.25 | 4.19 | 4.17 | 1015.0 | |
| 20260903225014 | 25 | 45 | 0.0 | 0.0 | 0.79 | 4.17 | 4.14 | 1015.0 | |
| 20260903224514 | 25 | 45 | 0.0 | 0.0 | 1.04 | 4.17 | 4.14 | 1015.0 | |
| 20260903224013 | 24 | 45 | 0.0 | 0.0 | 1.42 | 4.14 | 4.11 | 1014.9 | |
| 20260903223514 | 24 | 45 | 0.0 | 0.0 | 1.75 | 4.17 | 4.11 | 1014.8 | |
| 20260903223014 | 24 | 45 | 0.0 | 0.0 | 2.21 | 4.19 | 4.11 | 1014.8 | |
| 20260903222505 | 24 | 45 | 0.0 | 0.0 | 2.79 | 4.19 | 4.11 | 1014.8 |